Simultaneous Nadir Overpasses (SNOs) Predictions

Prediction of SNOs between GOES-16 and NOAA-20 Satellite Orbit:

Table of predicted SNOs for the next 14.0 days since TLE Epoch: 2/13/2025
Index Date Time (GOES-16) GOES-16 Lat,Lon NOAA-20 Lat,Lon Distance(km) Time Diff (sec)
1 02/14/2025 06:43:32 -0.03, -75.19 0.96, -79.54 496.83 80
2 02/15/2025 06:22:07 -0.03, -75.19 -0.08, -75.02 20.11 80
3 02/17/2025 18:25:18 0.03, -75.21 -0.07, -75.79 65.43 80
4 02/18/2025 18:09:13 0.03, -75.22 0.92, -71.25 452.26 80
5 02/20/2025 06:31:00 -0.03, -75.23 0.27, -76.52 146.49 80
6 02/21/2025 06:09:36 -0.02, -75.24 -0.78, -71.99 371.01 80
7 02/22/2025 18:31:30 0.01, -75.25 -0.46, -77.28 231.30 80
8 02/23/2025 18:15:24 -0.01, -75.26 0.53, -72.74 287.00 80
9 02/25/2025 06:37:12 0.01, -75.29 0.64, -78.01 310.71 80
10 02/26/2025 06:15:47 0.00, -75.30 -0.41, -73.48 207.20 80
11 02/27/2025 18:37:42 -0.00, -75.31 -0.76, -78.78 394.98 80
